DW3195 Weather Reports


time (UTC)temp
F
wind
direction
speed
knots
gust
knots
rain 1hr
in
rain 24hr
in
rain mn
in
humidity
%
barometer
mb
20260906101005 66 183 0.0 0.9 0.00 0.20 0.00 95 921.2
20260906100005 66 186 0.9 1.7 0.00 0.20 0.00 95 921.2
20260906094504 66 138 0.0 0.9 0.00 0.20 0.00 95 921.2
20260906094005 66 138 0.9 1.7 0.00 0.20 0.00 95 921.2
20260906093504 66 13 0.9 1.7 0.00 0.20 0.00 95 921.2
20260906093004 66 184 0.0 1.7 0.00 0.20 0.00 95 921.2
20260906091004 65 285 0.0 0.9 0.00 0.20 0.00 95 921.1
20260906090504 65 138 0.0 0.9 0.00 0.20 0.00 95 921.0
20260906090004 65 169 0.0 0.9 0.00 0.20 0.00 95 921.0
20260906084504 65 103 0.9 1.7 0.00 0.20 0.00 95 920.7
20260906084004 65 106 1.7 2.6 0.00 0.20 0.00 95 920.7
20260906081004 64 170 0.0 0.9 0.00 0.20 0.00 95 920.4
20260906080004 64 148 0.9 1.7 0.00 0.20 0.00 95 920.4
20260906074004 63 283 0.0 0.0 0.00 0.20 0.00 95 920.4
20260906073504 63 351 0.0 0.9 0.00 0.20 0.00 95 920.3
20260906073004 63 204 0.0 1.7 0.00 0.20 0.00 95 920.3
20260906071004 63 294 0.9 1.7 0.00 0.20 0.00 95 920.5
20260906070004 63 16 0.0 0.9 0.00 0.20 0.00 95 920.6
20260906064504 64 108 0.0 0.9 0.00 0.20 0.00 95 920.5
20260906063505 64 204 0.0 1.7 0.00 0.20 0.00 95 920.7
20260906063006 64 14 0.9 1.7 0.00 0.20 0.00 95 920.5
20260906054505 64 237 0.0 0.9 0.00 0.20 0.00 95 920.6
20260906054005 64 337 0.0 0.0 0.00 0.20 0.00 95 920.6
20260906053506 64 337 0.0 0.0 0.00 0.20 0.00 95 920.6
20260906053006 64 337 0.0 0.9 0.00 0.20 0.00 95 920.6
20260906051505 64 172 0.0 0.0 0.00 0.20 0.00 95 920.6
20260906051006 64 172 0.0 0.0 0.00 0.20 0.00 95 920.6
20260906050505 64 172 0.0 0.9 0.00 0.20 0.00 95 920.8
20260906050007 64 145 0.0 0.9 0.00 0.20 0.00 95 920.9
20260906044005 64 150 0.0 0.9 0.09 0.20 0.00 95 920.9
20260906043505 65 179 0.0 0.9 0.09 0.20 0.00 95 920.9
20260906043005 65 202 0.0 0.9 0.09 0.20 0.00 95 920.8
20260906041005 65 101 0.0 0.9 0.09 0.20 0.00 95 920.7
20260906040505 65 284 0.0 0.9 0.09 0.20 0.00 95 920.8
20260906040005 65 52 0.0 0.9 0.00 0.41 0.00 95 921.0
20260906034505 66 232 0.0 0.0 0.00 0.41 0.09 95 921.2
20260906034005 66 232 0.0 0.0 0.00 0.41 0.09 95 921.3
20260906033505 66 343 0.0 0.9 0.00 0.41 0.09 95 921.6
20260906033005 66 148 0.0 0.9 0.00 0.41 0.09 95 921.7
20260906031504 67 357 0.9 0.9 0.00 0.41 0.09 95 922.4
20260906031005 67 309 0.0 0.9 0.00 0.41 0.09 95 922.6
20260906030005 67 150 0.0 0.9 0.00 0.41 0.09 95 922.9
20260906024505 67 121 0.0 1.7 0.00 0.41 0.09 95 923.2
20260906024005 68 30 0.9 1.7 0.00 0.41 0.09 95 923.1
20260906023505 68 170 0.0 0.9 0.00 0.41 0.09 95 923.3
20260906023005 68 151 0.0 1.7 0.00 0.41 0.09 95 923.3
20260906021504 68 15 0.0 0.9 0.00 0.41 0.09 94 922.9
20260906021005 68 247 0.0 0.9 0.00 0.41 0.09 94 923.0
20260906020505 68 74 0.9 0.9 0.00 0.41 0.09 94 923.0
20260906020004 68 80 0.0 0.9 0.00 0.41 0.09 94 923.1
20260906014505 69 66 0.0 0.9 0.00 0.41 0.09 94 923.6
20260906014004 69 187 0.0 0.9 0.00 0.41 0.09 94 923.6
20260906013504 69 152 0.9 1.7 0.00 0.41 0.09 94 923.4
20260906013006 69 147 0.9 2.6 0.00 0.41 0.09 94 923.2
20260906010504 70 181 0.0 0.9 0.00 0.41 0.09 92 922.4
20260906010004 70 136 0.0 1.7 0.00 0.41 0.09 92 922.2
20260906004504 71 153 0.0 1.7 0.00 0.41 0.09 91 921.3
20260906004005 71 119 0.0 0.9 0.00 0.41 0.09 90 920.5
20260906003005 71 121 0.0 0.9 0.00 0.41 0.09 89 918.9
20260906001505 72 155 0.0 0.9 0.00 0.41 0.09 87 916.0
20260906001005 72 55 0.0 0.9 0.00 0.41 0.09 87 915.5
20260906000004 73 68 0.0 2.6 0.00 0.41 0.09 84 913.2
20260905234004 75 131 0.9 1.7 0.00 0.41 0.09 81 911.2
20260905233504 76 117 0.9 2.6 0.00 0.41 0.09 79 911.1
20260905233004 76 35 0.9 2.6 0.00 0.41 0.09 79 911.3
20260905231504 78 315 0.9 2.6 0.00 0.41 0.09 81 911.0
20260905231004 78 347 0.0 1.7 0.00 0.41 0.09 79 911.4
20260905230504 78 32 0.0 1.7 0.00 0.41 0.09 77 912.1
20260905224504 80 191 0.0 0.9 0.00 0.41 0.09 74 915.7
20260905224004 80 254 0.0 0.9 0.00 0.41 0.09 72 916.8
20260905223504 81 171 0.9 1.7 0.00 0.41 0.09 72 917.5
20260905223004 82 239 0.0 2.6 0.00 0.41 0.09 71 918.3
20260905221504 83 354 0.0 2.6 0.00 0.41 0.09 63 923.1
20260905221004 84 303 1.7 2.6 0.00 0.41 0.09 64 922.5
20260905220503 84 15 1.7 2.6 0.00 0.41 0.09 61 923.6
20260905220004 85 246 1.7 4.3 0.00 0.42 0.09 61 923.4
20260905214504 85 267 2.6 4.3 0.00 0.42 0.09 58 923.8
20260905214004 85 316 0.9 5.2 0.00 0.42 0.09 57 924.0
20260905213506 85 344 1.7 4.3 0.00 0.42 0.09 58 924.0
20260905213006 85 19 0.9 6.1 0.00 0.42 0.09 57 924.0
20260905211505 84 118 0.9 2.6 0.00 0.42 0.09 57 923.9
20260905211005 84 243 1.7 4.3 0.00 0.42 0.09 59 923.8
20260905210005 85 257 2.6 6.1 0.00 0.42 0.09 58 923.8
20260905204505 85 260 1.7 5.2 0.00 0.42 0.09 59 923.6
20260905204005 84 278 0.9 5.2 0.00 0.42 0.09 62 921.3
20260905203505 84 248 1.7 4.3 0.00 0.42 0.09 60 921.0
20260905203005 84 290 1.7 6.1 0.00 0.48 0.09 60 923.2
20260905201505 83 74 1.7 6.1 0.00 0.71 0.09 59 923.6
20260905201005 82 324 1.7 4.3 0.00 0.71 0.09 62 922.9
20260905200005 82 203 3.5 7.0 0.00 0.71 0.09 62 923.3
20260905194505 82 195 1.7 5.2 0.00 0.71 0.09 63 923.4
20260905194005 82 261 2.6 5.2 0.00 0.71 0.09 66 921.1
20260905193505 81 162 2.6 5.2 0.00 0.71 0.09 65 923.0
20260905193005 81 266 2.6 7.8 0.00 0.71 0.09 64 922.0
20260905191005 81 281 3.5 6.1 0.00 0.71 0.09 67 914.7
20260905190505 80 237 2.6 6.1 0.00 0.71 0.09 70 914.9
20260905190005 80 141 2.6 8.7 0.02 0.71 0.09 68 921.1
20260905184505 79 250 3.5 7.8 0.02 0.71 0.09 68 916.3
20260905183505 79 331 3.5 7.8 0.02 0.71 0.09 70 920.5
20260905183005 79 326 2.6 8.7 0.02 0.71 0.09 72 917.2
20260905181005 77 277 3.5 7.0 0.02 0.71 0.09 76 911.8
20260905180504 76 235 4.3 7.0 0.02 0.71 0.09 75 912.7
20260905180004 76 241 3.5 6.1 0.00 0.69 0.08 79 911.5
20260905174504 75 270 0.0 2.6 0.00 0.69 0.08 86 911.8
20260905174005 74 216 1.7 4.3 0.00 0.69 0.08 84 911.4
20260905173505 73 257 1.7 2.6 0.00 0.69 0.08 85 912.4
20260905171504 70 337 1.7 4.3 0.05 0.69 0.08 86 912.3
20260905171004 70 287 1.7 4.3 0.06 0.69 0.08 89 913.3
20260905170004 69 2 2.6 6.1 0.07 0.69 0.08 90 915.3
20260905164005 69 291 2.6 4.3 0.08 0.69 0.08 93 920.6
20260905163505 70 321 2.6 6.1 0.09 0.69 0.09 93 920.8
20260905163005 70 268 1.7 4.3 0.09 0.69 0.09 93 920.8
20260905161504 71 268 1.7 4.3 0.03 0.63 0.03 92 919.4
20260905161005 71 284 1.7 5.2 0.02 0.62 0.02 91 919.0
20260905160505 71 241 1.7 4.3 0.01 0.61 0.01 91 918.9
20260905160005 71 206 1.7 5.2 0.00 0.60 0.00 91 918.5
20260905154504 72 40 0.0 0.9 0.00 0.60 0.00 90 916.8
20260905153504 73 253 0.0 1.7 0.00 0.60 0.00 89 915.0
20260905153005 73 180 0.9 4.3 0.00 0.60 0.00 88 914.3
20260905151505 74 282 1.7 5.2 0.00 0.60 0.00 87 914.0
20260905151004 74 249 0.9 4.3 0.00 0.60 0.00 87 913.9
20260905150504 74 128 0.9 4.3 0.00 0.60 0.00 86 912.9
20260905150004 75 122 0.9 10.4 0.00 0.60 0.00 86 912.7
20260905144504 79 312 5.2 11.3 0.00 0.60 0.00 81 915.0
20260905144004 80 253 3.5 8.7 0.00 0.60 0.00 78 916.0
20260905143504 80 257 0.9 4.3 0.00 0.60 0.00 81 913.6
20260905143004 79 239 2.6 5.2 0.00 0.60 0.00 81 913.9
20260905141504 78 205 1.7 5.2 0.00 0.60 0.00 85 911.8
20260905141005 77 185 1.7 4.3 0.00 0.60 0.00 86 911.8
20260905140005 75 247 1.7 5.2 0.00 0.60 0.00 90 912.8
20260905134504 74 217 1.7 4.3 0.00 0.60 0.00 95 918.1
20260905134005 73 183 1.7 4.3 0.00 0.60 0.00 96 919.5
20260905133504 72 228 1.7 4.3 0.00 0.60 0.00 94 920.3
20260905131503 71 256 0.0 1.7 0.00 0.60 0.00 96 924.0
20260905131004 71 189 0.0 1.7 0.00 0.60 0.00 96 924.0
20260905130504 71 206 0.0 1.7 0.00 0.60 0.00 96 924.0
20260905130004 70 186 0.9 1.7 0.00 0.60 0.00 96 924.0
20260905124503 67 224 0.0 1.7 0.00 0.60 0.00 95 923.0
20260905123503 66 223 0.9 1.7 0.00 0.60 0.00 95 922.5
20260905123005 65 264 0.0 1.7 0.00 0.60 0.00 95 922.4
20260905121506 65 153 0.0 1.7 0.00 0.60 0.00 95 921.9
20260905121005 65 181 0.0 1.7 0.00 0.60 0.00 95 921.8
20260905120006 64 175 0.9 1.7 0.00 0.60 0.00 95 921.6
20260905114006 64 315 0.0 1.7 0.00 0.60 0.00 95 921.4
20260905113505 64 97 0.0 0.9 0.00 0.60 0.00 95 921.4
20260905113005 64 84 0.0 1.7 0.00 0.60 0.00 95 921.4
20260905111505 64 350 0.0 1.7 0.00 0.60 0.00 95 921.1
20260905110006 64 329 0.0 1.7 0.00 0.60 0.00 95 921.0
20260905104005 64 80 0.0 0.9 0.00 0.60 0.00 95 921.1
20260905103506 64 204 0.0 0.9 0.00 0.60 0.00 95 921.1
20260905103005 64 39 0.0 0.9 0.00 0.60 0.00 95 921.2
20260905101505 64 170 0.0 0.9 0.00 0.60 0.00 95 921.2